AB1IG Weather Reports


time (UTC)temp
C
wind
direction
speed
KPH
gust
KPH
rain 1hr
cm
rain 24hr
cm
rain mn
cm
humidity
%
barometer
mb
20260906203055 40 44 1.6 12.9 0.00 0.00 0.00 31 1007.2
20260906201553 40 26 1.6 8.0 0.00 0.00 0.00 31 1007.2
20260906200048 40 340 0.0 6.4 0.00 0.00 0.00 31 1007.5
20260906194601 40 266 0.0 11.3 0.00 0.00 0.00 31 1007.7
20260906193044 40 167 1.6 9.7 0.00 0.00 0.00 31 1008.0
20260906191543 39 318 0.0 8.0 0.00 0.00 0.00 34 1008.2
20260906190040 40 167 1.6 9.7 0.00 0.00 0.00 33 1008.4
20260906184540 40 231 1.6 12.9 0.00 0.00 0.00 33 1008.6
20260906183056 39 281 1.6 11.3 0.00 0.00 0.00 34 1008.8
20260906181542 40 360 0.0 8.0 0.00 0.00 0.00 34 1009.0
20260906180047 38 309 1.6 6.4 0.00 0.00 0.00 36 1009.2
20260906174532 38 352 0.0 11.3 0.00 0.00 0.00 36 1009.5
20260906173032 38 194 3.2 9.7 0.00 0.00 0.00 37 1009.7
20260906171528 38 278 0.0 3.2 0.00 0.00 0.00 38 1010.0
20260906170025 37 145 0.0 3.2 0.00 0.00 0.00 39 1010.3
20260906164523 37 246 0.0 4.8 0.00 0.00 0.00 40 1010.5
20260906163021 36 113 1.6 6.4 0.00 0.00 0.00 41 1010.6
20260906161535 35 100 0.0 4.8 0.00 0.00 0.00 43 1010.5
20260906160012 35 255 1.6 6.4 0.00 0.00 0.00 46 1010.5
20260906154508 33 135 1.6 6.4 0.00 0.00 0.00 48 1010.5
20260906153006 32 238 0.0 4.8 0.00 0.00 0.00 51 1010.4
20260906151502 32 284 0.0 6.4 0.00 0.00 0.00 51 1010.3
20260906150107 31 256 0.0 4.8 0.00 0.00 0.00 53 1010.4
20260906144554 31 205 0.0 4.8 0.00 0.00 0.00 55 1010.3
20260906143051 30 271 1.6 6.4 0.00 0.00 0.00 57 1010.3
20260906141603 30 205 1.6 8.0 0.00 0.00 0.00 57 1010.2
20260906140047 29 203 1.6 6.4 0.00 0.00 0.00 58 1010.1
20260906134548 28 317 1.6 8.0 0.00 0.00 0.00 60 1010.0
20260906133051 27 243 0.0 3.2 0.00 0.00 0.00 62 1009.9
20260906131559 27 163 0.0 4.8 0.00 0.00 0.00 64 1009.8
20260906130053 26 146 0.0 3.2 0.00 0.00 0.00 64 1009.7
20260906124543 26 235 0.0 4.8 0.00 0.00 0.00 65 1009.6
20260906123041 26 152 0.0 3.2 0.00 0.00 0.00 65 1009.4
20260906121540 26 169 0.0 3.2 0.00 0.00 0.00 65 1009.2
20260906120035 26 210 0.0 3.2 0.00 0.00 0.00 65 1009.1
20260906114541 26 217 0.0 3.2 0.00 0.00 0.00 64 1008.9
20260906111531 26 190 0.0 3.2 0.00 0.00 0.00 64 1008.6
20260906110026 26 144 0.0 1.6 0.00 0.00 0.00 62 1008.5
20260906104526 26 149 0.0 3.2 0.00 0.00 0.00 62 1008.4
20260906103024 26 180 0.0 1.6 0.00 0.00 0.00 61 1008.4
20260906101529 26 146 0.0 3.2 0.00 0.00 0.00 61 1008.3
20260906100031 26 221 0.0 3.2 0.00 0.00 0.00 61 1008.3
20260906094522 26 169 0.0 1.6 0.00 0.00 0.00 61 1008.3
20260906093018 27 169 0.0 0.0 0.00 0.00 0.00 59 1008.2
20260906091517 27 169 0.0 0.0 0.00 0.00 0.00 58 1008.3
20260906090015 27 169 0.0 1.6 0.00 0.00 0.00 58 1008.2
20260906084514 27 191 0.0 1.6 0.00 0.00 0.00 58 1008.2
20260906083013 27 124 0.0 1.6 0.00 0.00 0.00 57 1008.1
20260906081514 27 124 0.0 1.6 0.00 0.00 0.00 57 1008.1
20260906080011 27 124 0.0 1.6 0.00 0.00 0.00 56 1008.1
20260906074508 28 124 0.0 1.6 0.00 0.00 0.00 56 1008.1
20260906073007 28 120 0.0 1.6 0.00 0.00 0.00 55 1008.1
20260906071506 28 163 0.0 1.6 0.00 0.00 0.00 55 1008.1
20260906070003 28 228 0.0 3.2 0.00 0.00 0.00 54 1008.1
20260906064504 28 204 0.0 3.2 0.00 0.00 0.00 54 1008.1
20260906063002 28 224 0.0 1.6 0.00 0.00 0.00 54 1008.1
20260906061601 28 215 0.0 1.6 0.00 0.00 0.00 53 1008.1
20260906061502 28 215 0.0 1.6 0.00 0.00 0.00 53 1008.1
20260906060133 29 215 0.0 1.6 0.00 0.00 0.00 53 1008.1
20260906054607 29 215 0.0 1.6 0.00 0.00 0.00 51 1008.1
20260906053053 30 203 0.0 3.2 0.00 0.00 0.00 51 1008.0
20260906051550 30 224 0.0 3.2 0.00 0.00 0.00 50 1007.8
20260906050047 30 218 0.0 3.2 0.00 0.00 0.00 49 1007.8
20260906044546 30 162 1.6 6.4 0.00 0.00 0.00 49 1007.7
20260906043050 30 229 0.0 4.8 0.00 0.00 0.00 49 1007.8
20260906041546 31 229 0.0 3.2 0.00 0.00 0.00 48 1007.8
20260906040045 31 184 1.6 3.2 0.00 0.00 0.00 47 1007.9
20260906034558 31 160 0.0 4.8 0.00 0.00 0.00 47 1007.9
20260906033045 31 226 0.0 1.6 0.00 0.00 0.00 47 1007.8
20260906031543 31 226 0.0 3.2 0.00 0.00 0.00 46 1007.7
20260906030044 32 232 0.0 1.6 0.00 0.00 0.00 46 1007.8
20260906024541 32 232 0.0 3.2 0.00 0.00 0.00 45 1007.6
20260906023042 32 233 0.0 3.2 0.00 0.00 0.00 46 1007.5
20260906021544 32 243 0.0 1.6 0.00 0.00 0.00 46 1007.3
20260906020041 32 243 0.0 3.2 0.00 0.00 0.00 46 1007.1
20260906014548 32 243 0.0 1.6 0.00 0.00 0.00 44 1007.0
20260906013040 33 245 0.0 1.6 0.00 0.00 0.00 43 1006.8
20260906011540 33 134 0.0 4.8 0.00 0.00 0.00 41 1006.6
20260906010050 34 146 0.0 6.4 0.00 0.00 0.00 40 1006.5
20260906004549 35 139 0.0 4.8 0.00 0.00 0.00 39 1006.4
20260906003040 35 131 0.0 6.4 0.00 0.00 0.00 38 1006.3
20260906001554 36 146 1.6 8.0 0.00 0.00 0.00 36 1006.2
20260906000037 36 264 0.0 6.4 0.00 0.00 0.00 36 1006.2
20260905234538 36 129 0.0 12.9 0.00 0.00 0.00 36 1006.0
20260905233036 37 136 0.0 6.4 0.00 0.00 0.00 35 1005.9
20260905231536 38 219 0.0 6.4 0.00 0.00 0.00 33 1005.8
20260905230038 38 143 1.6 9.7 0.00 0.00 0.00 33 1005.9
20260905224535 39 149 0.0 4.8 0.00 0.00 0.00 32 1005.8
20260905223046 38 142 0.0 4.8 0.00 0.00 0.00 33 1005.8
20260905221534 38 307 4.8 11.3 0.00 0.00 0.00 33 1005.7
20260905220031 38 156 3.2 9.7 0.00 0.00 0.00 33 1005.9
20260905214529 38 150 4.8 11.3 0.00 0.00 0.00 33 1006.0
20260905213027 38 167 0.0 11.3 0.00 0.00 0.00 34 1006.2
20260905211525 38 233 3.2 9.7 0.00 0.00 0.00 33 1006.5
20260905210032 38 231 0.0 9.7 0.00 0.00 0.00 34 1006.6
20260905204520 38 126 3.2 11.3 0.00 0.00 0.00 34 1006.9